Drummond Island, MI

5:52 PM EDT on April 27, 2017 (GMT -0400)
Drummond Island

Weather History for KDRM - February, 2014

Change the Weather History Date:

Sunday, February 9, 2014

  Actual Average (KCIU) Record (KCIU)
Temperature  
Mean Temperature 8 °F -  
Max Temperature 18 °F 26 °F 46 °F (1991)
Min Temperature -1 °F 0 °F -30 °F (1979)
Degree Days  
Heating Degree Days 57    
Moisture  
Dew Point 0 °F    
Average Humidity 74    
Maximum Humidity 87    
Minimum Humidity 52    
Precipitation  
Precipitation 0.00 in - - ()
Sea Level Pressure  
Sea Level Pressure 30.05 in    
Wind  
Wind Speed 2 mph (NW)    
Max Wind Speed 7 mph    
Max Gust Speed -    
Visibility 10 miles    
Events      
Averages and records for this station are not official NWS values.
T = Trace of Precipitation, MM = Missing Value Source: NWS Daily Summary

Daily Weather History Graph

Daily Weather History Graph

Search for Another Location

Airport or City:

Trip Planner

Search our weather history database for the weather conditions in past years. The results will help you decide how hot, cold, wet, or windy it might be!

Date:

Astronomy

Feb. 09, 2014 Rise Set
Actual Time 7:46 AM EST 5:52 PM EST
Civil Twilight 7:15 AM EST 6:23 PM EST
Nautical Twilight 6:40 AM EST 6:58 PM EST
Astronomical Twilight 6:05 AM EST 7:33 PM EST
Moon 1:25 PM EST (2/9) 3:56 AM EST (2/9)
Length of Visible Light 11h 08m
Length of Day
10h 05m
Waxing Gibbous, 77% of the Moon is Illuminated
Feb 9
Waxing Gibbous
Feb 14
Full
Feb 22
Last Quarter
Mar 1
New
Mar 8
First Quarter

Hourly Weather History & Observations

Time (EST) Temp. Windchill Dew Point Humidity Pressure Visibility Wind Dir Wind Speed Gust Speed Precip Events Conditions
12:17 AM 2.5 °F - -1.5 °F 84% 30.10 in 10.0 mi Calm Calm - N/A   Overcast
12:38 AM 4.8 °F - 0.5 °F 82% 30.10 in 10.0 mi Calm Calm - N/A   Overcast
12:57 AM 5.2 °F - 1.4 °F 84% 30.09 in 10.0 mi Calm Calm - N/A   Overcast
1:17 AM 5.4 °F - 1.6 °F 84% 30.08 in 10.0 mi Calm Calm - N/A   Overcast
1:38 AM 5.5 °F - 1.8 °F 84% 30.08 in 10.0 mi Calm Calm - N/A   Overcast
1:57 AM 4.3 °F - 0.1 °F 83% 30.07 in 10.0 mi Calm Calm - N/A   Overcast
2:17 AM 4.5 °F - 1.0 °F 86% 30.08 in 10.0 mi Calm Calm - N/A   Overcast
2:38 AM 2.7 °F -4.8 °F -0.9 °F 85% 30.08 in 10.0 mi SE 3.5 mph - N/A   Mostly Cloudy
2:57 AM 3.4 °F - -0.4 °F 84% 30.07 in 10.0 mi Calm Calm - N/A   Mostly Cloudy
3:17 AM 2.1 °F - -1.3 °F 86% 30.08 in 10.0 mi Calm Calm - N/A   Mostly Cloudy
3:38 AM 0.1 °F - -3.3 °F 85% 30.07 in 10.0 mi Calm Calm - N/A   Scattered Clouds
3:57 AM 1.0 °F - -2.0 °F 87% 30.07 in 10.0 mi Calm Calm - N/A   Clear
4:18 AM -0.8 °F - -4.2 °F 85% 30.06 in 10.0 mi Calm Calm - N/A   Clear
4:37 AM -0.4 °F - -4.0 °F 85% 30.06 in 10.0 mi Calm Calm - N/A   Clear
4:57 AM -0.8 °F - -4.2 °F 85% 30.05 in 10.0 mi Calm Calm - N/A   Clear
5:18 AM -1.5 °F - -4.9 °F 85% 30.05 in 10.0 mi Calm Calm - N/A   Clear
5:37 AM -1.5 °F - -5.1 °F 85% 30.05 in 10.0 mi Calm Calm - N/A   Clear
5:57 AM -1.7 °F - -5.4 °F 84% 30.04 in 10.0 mi Calm Calm - N/A   Clear
6:18 AM -1.1 °F - -4.9 °F 84% 30.04 in 10.0 mi Calm Calm - N/A   Clear
6:37 AM -1.3 °F - -4.9 °F 85% 30.05 in 10.0 mi Calm Calm - N/A   Clear
6:57 AM -1.3 °F - -5.1 °F 84% 30.05 in 10.0 mi Calm Calm - N/A   Clear
7:17 AM -0.9 °F - -4.9 °F 83% 30.05 in 10.0 mi Calm Calm - N/A   Clear
7:37 AM -0.0 °F - -4.0 °F 83% 30.05 in 10.0 mi Calm Calm - N/A   Scattered Clouds
7:58 AM -1.1 °F - -5.1 °F 83% 30.05 in 10.0 mi Calm Calm - N/A   Scattered Clouds
8:17 AM 0.1 °F - -3.6 °F 84% 30.05 in 10.0 mi Calm Calm - N/A   Scattered Clouds
8:38 AM 0.5 °F - -3.3 °F 84% 30.05 in 10.0 mi Calm Calm - N/A   Scattered Clouds
8:58 AM 1.2 °F -6.4 °F -2.4 °F 85% 30.05 in 10.0 mi North 3.5 mph - N/A   Scattered Clouds
9:17 AM 1.4 °F - -2.2 °F 85% 30.05 in 10.0 mi Calm Calm - N/A   Scattered Clouds
9:38 AM 2.3 °F -7.2 °F -1.5 °F 84% 30.05 in 10.0 mi North 4.6 mph - N/A   Scattered Clouds
9:58 AM 3.7 °F -3.6 °F -0.4 °F 83% 30.04 in 10.0 mi North 3.5 mph - N/A   Overcast
10:17 AM 4.1 °F -5.1 °F -0.0 °F 83% 30.04 in 10.0 mi North 4.6 mph - N/A   Overcast
10:38 AM 5.4 °F - 0.9 °F 82% 30.03 in 10.0 mi Calm Calm - N/A   Overcast
10:57 AM 6.6 °F -0.3 °F 1.2 °F 79% 30.03 in 10.0 mi North 3.5 mph - N/A   Overcast
11:17 AM 6.8 °F -0.1 °F 1.4 °F 79% 30.03 in 10.0 mi North 3.5 mph - N/A   Overcast
11:37 AM 8.2 °F - 1.9 °F 76% 30.03 in 10.0 mi Calm Calm - N/A   Scattered Clouds
11:57 AM 11.7 °F - 3.2 °F 69% 30.02 in 10.0 mi Calm Calm - N/A   Scattered Clouds
12:18 PM 12.7 °F 6.7 °F 3.9 °F 68% 30.02 in 10.0 mi NNW 3.5 mph - N/A   Mostly Cloudy
12:37 PM 13.3 °F 7.3 °F 4.5 °F 68% 30.01 in 10.0 mi North 3.5 mph - N/A   Overcast
12:57 PM 13.6 °F 4.6 °F 4.3 °F 66% 30.01 in 10.0 mi North 5.8 mph - N/A   Overcast
1:18 PM 13.1 °F 5.4 °F 4.3 °F 68% 30.00 in 10.0 mi North 4.6 mph - N/A   Overcast
1:37 PM 13.5 °F 4.4 °F 3.7 °F 65% 30.00 in 10.0 mi North 5.8 mph - N/A   Overcast
1:58 PM 14.0 °F 8.2 °F 4.3 °F 65% 30.00 in 10.0 mi NNW 3.5 mph - N/A   Overcast
2:17 PM 14.0 °F - 4.8 °F 67% 30.00 in 10.0 mi Calm Calm - N/A   Overcast
2:38 PM 15.4 °F - 5.2 °F 64% 29.99 in 10.0 mi Calm Calm - N/A   Mostly Cloudy
2:58 PM 17.4 °F 10.4 °F 4.8 °F 58% 29.99 in 10.0 mi WNW 4.6 mph - N/A   Scattered Clouds
3:17 PM 17.6 °F - 3.6 °F 54% 29.99 in 10.0 mi Calm Calm - N/A   Clear
3:38 PM 17.6 °F 9.3 °F 3.0 °F 53% 29.99 in 10.0 mi NW 5.8 mph - N/A   Clear
3:58 PM 17.2 °F 11.9 °F 2.8 °F 53% 30.00 in 10.0 mi NW 3.5 mph - N/A   Clear
4:17 PM 17.4 °F 12.1 °F 3.2 °F 54% 30.00 in 10.0 mi WNW 3.5 mph - N/A   Clear
4:38 PM 16.2 °F 9.0 °F 3.0 °F 56% 30.00 in 10.0 mi WNW 4.6 mph - N/A   Clear
4:57 PM 15.4 °F 6.8 °F 1.8 °F 55% 30.01 in 10.0 mi WNW 5.8 mph - N/A   Clear
5:17 PM 14.4 °F 4.3 °F -0.4 °F 52% 30.02 in 10.0 mi WNW 6.9 mph - N/A   Clear
5:38 PM 13.6 °F 3.5 °F -1.3 °F 52% 30.03 in 10.0 mi WNW 6.9 mph - N/A   Clear
5:57 PM 12.6 °F 4.8 °F -0.6 °F 56% 30.03 in 10.0 mi WNW 4.6 mph - N/A   Clear
6:17 PM 11.7 °F 2.3 °F 0.1 °F 60% 30.04 in 10.0 mi WNW 5.8 mph - N/A   Clear
6:38 PM 10.6 °F 1.0 °F -0.4 °F 61% 30.05 in 10.0 mi WNW 5.8 mph - N/A   Clear
6:57 PM 10.4 °F -0.4 °F -0.6 °F 61% 30.06 in 10.0 mi WNW 6.9 mph - N/A   Clear
7:18 PM 9.7 °F -1.3 °F -1.3 °F 61% 30.06 in 10.0 mi WNW 6.9 mph - N/A   Clear
7:38 PM 9.0 °F 0.6 °F -1.3 °F 63% 30.06 in 10.0 mi NW 4.6 mph - N/A   Clear
7:57 PM 8.6 °F -1.3 °F -0.9 °F 65% 30.07 in 10.0 mi WNW 5.8 mph - N/A   Scattered Clouds
8:18 PM 8.6 °F -1.3 °F -0.6 °F 66% 30.07 in 10.0 mi WNW 5.8 mph - N/A   Mostly Cloudy
8:37 PM 8.2 °F -3.0 °F -0.8 °F 67% 30.08 in 10.0 mi WNW 6.9 mph - N/A   Overcast
8:57 PM 7.0 °F -1.7 °F -1.5 °F 68% 30.08 in 10.0 mi WNW 4.6 mph - N/A   Mostly Cloudy
9:17 PM 6.4 °F -2.4 °F -1.8 °F 69% 30.08 in 10.0 mi WNW 4.6 mph - N/A   Scattered Clouds
9:37 PM 5.9 °F -1.1 °F -1.8 °F 70% 30.09 in 10.0 mi West 3.5 mph - N/A   Mostly Cloudy
9:58 PM 5.2 °F -1.9 °F -2.2 °F 72% 30.10 in 10.0 mi West 3.5 mph - N/A   Scattered Clouds
10:17 PM 4.6 °F - -2.2 °F 73% 30.10 in 10.0 mi Calm Calm - N/A   Clear
10:37 PM 4.1 °F - -2.6 °F 74% 30.12 in 10.0 mi Calm Calm - N/A   Clear
10:58 PM 4.8 °F -4.3 °F -2.2 °F 73% 30.12 in 10.0 mi NW 4.6 mph - N/A   Clear
11:17 PM 6.6 °F -3.7 °F 0.5 °F 76% 30.12 in 10.0 mi NW 5.8 mph - N/A   Mostly Cloudy
11:37 PM 7.3 °F -2.8 °F 0.9 °F 75% 30.12 in 10.0 mi NW 5.8 mph - N/A   Overcast
11:58 PM 7.3 °F -4.1 °F 0.9 °F 75% 30.13 in 10.0 mi NW 6.9 mph - N/A   Overcast